Starlink 30812

operational
NORAD ID: 58168 Int'l Des: 2023-166 Owner: SPXS Country: US Constellation: starlink
LEOCIRCULAR

About Starlink 30812

Description loading...

Live Position

Loading 3D Globe...

Upcoming Passes

Altitude History

Altitude vs Time

uPlot chart will show altitude changes over time

Two-Line Element Set

1 58168U 23166U 25312.60177611 .00001109 00000-0 49553-4 0 9999
2 58168 53.1609 61.8131 0001241 83.4653 276.6489 15.30200084114495
Epoch: Nov 8, 2025 • Age: 42 hours

Current Status

Altitude 478.0 km
Velocity 7.63 km/s
Sub-Earth Point -9.33°S, 70.58°E
Launch Date Oct 29, 2023
Age 2 years
Type internet

Technical Details

Classification Payload
Mass 730.00 kg
Dry Mass 700.00 kg
Total Mass 730.00 kg
Length 0.30 m
Diameter 4.10 m
Span 29.00 m
Shape Box + pan
Manufacturer SPXS
Bus Type Starlink V2M
Phase Status In Orbit
Owner/State SPXS/US

Large Constellations

Loading constellations...